Flag for U.S.A. Weather past 2 weeks in Sitka, Alaska, U.S.A.

Now
64 °F

Scattered clouds.


Feels Like: 64 °F
Forecast: 56 / 63 °F
Wind: 14 mph from Northwest

Location: Sitka Airport

Current Time: Jul 6, 2015 at 6:49:19 PM

Latest Report: Jul 6, 2015 at 5:53 PM


Visibility: 10 mi

Pressure: 30.11 "Hg

Humidity: 73%

Dew point: 55 °F

Location of SitkaLocation

Historic Weather in Sitka — Graph

°F

Sitka temperature yesterday

Maximum temperature yesterday: 67 °F (at 11:53 AM)
Minimum temperature yesterday: 54 °F (at 3:53 AM)
Average temperature yesterday: 61 °F

Past Weeks' High & Low Weather Summary

 TemperatureHumidityPressure
High68 °F (Jul 6, 12:53 PM)100% (Jun 25, 7:53 PM)30.32 "Hg (Jun 25, 7:53 PM)
Low49 °F (Jul 1, 2:53 AM)51% (Jun 24, 8:53 AM)29.84 "Hg (Jun 25, 5:53 PM)
Average58 °F80%30.10 "Hg
* Reported Jun 21 4:53 PM — Jul 6 4:53 PM, Sitka, Weather by CustomWeather, © 2015

Note: Actual official high and low records may vary slightly from our data, if they occured in-between our weather recording intervals... More about our weather records

Advertising

Sitka weather history for previous 24 hours

 ConditionsComfort  
Time TempWeatherWind HumidityBarometerVisibility
4:53 PM
Mon, Jul 6
65 °FScattered clouds.13 mph70%30.12 "Hg10 mi
3:53 PM67 °FScattered clouds.14 mph66%30.12 "Hg10 mi
2:53 PM67 °FSunny.13 mph66%30.11 "Hg10 mi
1:53 PM66 °FSunny.18 mph68%30.11 "Hg10 mi
12:53 PM68 °FPassing clouds.14 mph65%30.11 "Hg10 mi
11:53 AM66 °FPassing clouds.12 mph68%30.12 "Hg10 mi
10:53 AM65 °FPassing clouds.7 mph70%30.12 "Hg10 mi
9:53 AM64 °FSunny.13 mph70%30.12 "Hg10 mi
8:53 AM61 °FPassing clouds.13 mph78%30.11 "Hg10 mi
7:53 AM59 °FPassing clouds.8 mph78%30.11 "Hg10 mi
6:53 AM58 °FPassing clouds.3 mph84%30.11 "Hg10 mi
5:53 AM56 °FSunny.3 mph90%30.12 "Hg10 mi
4:53 AM54 °FPassing clouds.3 mph86%30.12 "Hg10 mi
3:53 AM55 °FClear.3 mph87%30.13 "Hg10 mi
2:53 AM56 °FClear.No wind87%30.13 "Hg10 mi
1:53 AM57 °FClear.No wind83%30.13 "Hg10 mi
12:53 AM58 °FClear.6 mph81%30.13 "Hg10 mi
11:53 PM
Sun, Jul 5
58 °FClear.6 mph81%30.13 "Hg10 mi
10:53 PM60 °FSunny.5 mph78%30.12 "Hg10 mi
9:53 PM61 °FSunny.6 mph78%30.11 "Hg10 mi
8:53 PM63 °FScattered clouds.5 mph68%30.12 "Hg10 mi
7:53 PM63 °FScattered clouds.15 mph73%30.12 "Hg10 mi
6:53 PM64 °FScattered clouds.15 mph70%30.12 "Hg10 mi
Weather by CustomWeather, © 2015

See weather overviewHow to use our weather pages